Regional Weather Roundup
Issued by NWS

Home | Current Version | Previous Version | Graphics & Text | Print | Product List | Glossary On
Versions: 1 2 3 4 5 6 7 8 9 10 11 12 13 14 15 16 17 18 19 20 21 22 23 24 25 26 27 28 29 30 31 32 33 34 35 36 37 38 39 40 41 42 43 44 45 46 47 48 49 50
000
ASUS44 KMEG 130410
RWRTN
TENNESSEE HOURLY STATE WEATHER ROUNDUP
NATIONAL WEATHER SERVICE MEMPHIS TN
1100 PM CDT SAT JUL 12 2014

TNZ002-004-019-021-049-052-054-088>092-130500-
WEST TENNESSEE

CITY           SKY/WX    TMP DP  RH WIND       PRES   REMARKS
MEMPHIS INTL   PTCLDY    80  71  74 S6        30.09R
NWS MEMPHIS      N/A     79 N/A N/A MISG        N/A
JACKSON        CLEAR     74  71  91 S5        30.10R
DYERSBURG      CLEAR     79  66  65 CALM      30.09R
UNION CITY     CLEAR     77  72  83 CALM      30.07S
PARIS          PTCLDY    73  67  81 CALM      30.09F
LEXINGTON      CLEAR     73  72  94 CALM      30.10R
SILERTON         N/A     73  72  97 CALM        N/A
SAVANNAH       CLEAR     72  72 100 CALM      30.12R
$$

TNZ008-025-027-028-033-062-065-066-130500-
NORTH MIDDLE TENNESSEE

CITY           SKY/WX    TMP DP  RH WIND       PRES   REMARKS
NASHVILLE      PTCLDY    78  69  73 S5        30.10S
DICKSON        CLEAR     75  70  83 CALM      30.11S
PORTLAND       CLOUDY    75  66  73 CALM      30.10
CLARKSVILLE    PTCLDY    78  69  73 CALM      30.09R
LEBANON        CLEAR     77  64  63 SE3       30.09S
SMYRNA         CLEAR     76  70  82 CALM      30.11S
COOKEVILLE     CLEAR     70  68  94 CALM      30.14R
LIVINGSTON       N/A     74  61  63 SW5       30.15
GALLATIN       CLEAR     77  70  79 CALM      30.10F
CROSSVILLE     PTCLDY    74  67  78 VRB3      30.19S
$$

TNZ061-075-076-078-094-096-097-130500-
SOUTH MIDDLE TENNESSEE

CITY           SKY/WX    TMP DP  RH WIND       PRES   REMARKS
LEWISBURG      CLEAR     74  68  81 CALM      30.11F
FAYETTEVILLE   CLEAR     77  70  78 CALM      30.14S
TULLAHOMA      CLEAR     73  68  83 SW3       30.15S
WINCHESTER     CLEAR     75  72  88 CALM      30.15R
MCMINNVILLE    CLEAR     72  70  94 CALM      30.14S
COLUMBIA       CLEAR     75  72  88 CALM      30.10S
SHELBYVILLE    CLEAR     75  70  83 CALM      30.13S
$$

TNZ017-018-042-046-047-130500-
NORTHEAST TENNESSEE

CITY           SKY/WX    TMP DP  RH WIND       PRES   REMARKS
TRI CITIES     MOCLDY    75  66  73 CALM      30.17F
ELIZABETHTON   MOCLDY    70  66  88 CALM      30.19S
$$

TNZ012-013-036-069-073-074-130500-
CENTRAL EAST TENNESSEE

CITY           SKY/WX    TMP DP  RH WIND       PRES   REMARKS
KNOXVILLE      MOCLDY    75  69  81 SW7       30.13F
OAK RIDGE      PTCLDY    79  70  74 CALM      30.15S
GATLINBURG     CLEAR     73  68  83 CALM      30.14S
MORRISTOWN     CLEAR     73  70  88 CALM      30.17S
$$

TNZ083-085-099-130500-
SOUTHEAST TENNESSEE

CITY           SKY/WX    TMP DP  RH WIND       PRES   REMARKS
CHATTANOOGA    MOCLDY    77  71  82 CALM      30.14S
$$

SKY/WX REPORTED AS FAIR MEANS FEW OR NO CLOUDS BELOW
12 THOUSAND FEET.




USA.gov is the U.S. government's official web portal to all federal, state and local government web resources and services.